Flag for U.S.A. Weather past 2 weeks in Winamac, Indiana, U.S.A.

Now
33 °F

Overcast.


Feels Like: 27 °F
Forecast: 21 / 31 °F
Wind: 7 mph from Northeast

Location: Porter County Municipal Airport

Current Time: Mar 27, 2015 at 12:34:18 AM

Latest Report: Mar 26, 2015 at 11:56 PM


Visibility: 10 mi

Pressure: 30.06 "Hg

Humidity: 72%

Dew point: 25 °F

Location of WinamacLocation

Historic Weather in Winamac — Graph

°F

Winamac temperature yesterday

Maximum temperature yesterday: 43 °F (at 3:56 PM)
Minimum temperature yesterday: 33 °F (at 10:56 PM)
Average temperature yesterday: 37 °F

Past Weeks' High & Low Weather Summary

 TemperatureHumidityPressure
High71 °F (Mar 16, 5:56 PM)100% (Mar 13, 11:56 PM)30.55 "Hg (Mar 13, 11:56 PM)
Low13 °F (Mar 24, 5:56 AM)21% (Mar 18, 3:56 PM)29.78 "Hg (Mar 16, 7:56 PM)
Average39 °F67%30.17 "Hg
* Reported Mar 11 10:56 PM — Mar 26 10:56 PM, Winamac, Weather by CustomWeather, © 2015

Note: Actual official high and low records may vary slightly from our data, if they occured in-between our weather recording intervals... More about our weather records

Advertising

Winamac weather history for previous 24 hours

 ConditionsComfort  
Time TempWeatherWind HumidityBarometerVisibility
10:56 PM
Thu, Mar 26
33 °FMostly cloudy.6 mph70%30.06 "Hg10 mi
9:56 PM34 °FOvercast.6 mph70%30.06 "Hg10 mi
8:56 PM34 °FOvercast.8 mph70%30.03 "Hg10 mi
7:56 PM35 °FOvercast.8 mph61%30.01 "Hg10 mi
6:56 PM37 °FOvercast.10 mph54%30.01 "Hg10 mi
5:56 PM40 °FOvercast.9 mph49%29.99 "Hg10 mi
4:56 PM41 °FOvercast.7 mph49%29.97 "Hg10 mi
3:56 PM43 °FSunny.9 mph47%29.94 "Hg10 mi
2:56 PM41 °FPassing clouds.10 mph53%29.96 "Hg10 mi
1:56 PM42 °FScattered clouds.12 mph51%29.97 "Hg10 mi
12:56 PM39 °FPartly sunny.10 mph57%29.98 "Hg10 mi
11:56 AM38 °FPartly sunny.10 mph60%29.98 "Hg10 mi
10:56 AM38 °FOvercast.9 mph65%29.98 "Hg10 mi
9:56 AM37 °FSunny.8 mph67%29.98 "Hg10 mi
8:56 AM35 °FSunny.6 mph72%29.98 "Hg10 mi
7:56 AM34 °FScattered clouds.3 mph76%29.97 "Hg10 mi
6:56 AM35 °FOvercast.6 mph72%29.96 "Hg10 mi
5:56 AM35 °FOvercast.6 mph75%29.96 "Hg10 mi
4:56 AM36 °FOvercast.13 mph73%29.97 "Hg10 mi
3:56 AM37 °FOvercast.9 mph76%29.98 "Hg10 mi
2:56 AM38 °FMostly cloudy.6 mph86%30.00 "Hg7 mi
1:56 AM38 °FFog.8 mph90%30.06 "Hg6 mi
12:56 AM37 °FClear.8 mph89%30.06 "Hg7 mi
Weather by CustomWeather, © 2015

See weather overviewHow to use our weather pages